This is the latest recevied weather packets stored in our database for station/object IT9CNT. If no packets are shown the sender has not sent any weather packets the latest 10 day(s).
| Time | Temp. | Humidity | Pressure | Rain* | Wind** | Luminosity | Snow |
|---|---|---|---|---|---|---|---|
| 1787481123 | 33.33° C | 69% | 1013.6 hPa | 0 mm | - | - | - |
| 1787481064 | 33.33° C | 68% | 1013.4 hPa | 0 mm | - | - | - |
| 1787481003 | 33.33° C | 69% | 1013.3 hPa | 0 mm | - | - | - |
| 1787480944 | 33.33° C | 70% | 1013.6 hPa | 0 mm | - | - | - |
| 1787480883 | 33.33° C | 69% | 1013.6 hPa | 0 mm | - | - | - |
| 1787480824 | 33.89° C | 69% | 1013.5 hPa | 0 mm | - | - | - |
| 1787480763 | 33.33° C | 69% | 1013.3 hPa | 0 mm | - | - | - |
| 1787480703 | 32.78° C | 70% | 1013.5 hPa | 0 mm | - | - | - |
| 1787480643 | 32.78° C | 70% | 1013.4 hPa | 0 mm | - | - | - |
| 1787480583 | 32.78° C | 71% | 1013.3 hPa | 0 mm | - | - | - |
| 1787480524 | 32.78° C | 70% | 1013.3 hPa | 0 mm | - | - | - |
| 1787480463 | 32.78° C | 70% | 1013.4 hPa | 0 mm | - | - | - |
| 1787480403 | 32.78° C | 70% | 1013.6 hPa | 0 mm | - | - | - |
| 1787480343 | 33.33° C | 69% | 1013.4 hPa | 0 mm | - | - | - |
| 1787480283 | 33.33° C | 68% | 1013.5 hPa | 0 mm | - | - | - |
| 1787480223 | 33.89° C | 67% | 1013.4 hPa | 0 mm | - | - | - |
| 1787480163 | 33.89° C | 70% | 1013.5 hPa | 0 mm | - | - | - |
| 1787480103 | 33.89° C | 70% | 1013.4 hPa | 0 mm | - | - | - |
| 1787480043 | 33.89° C | 69% | 1013.3 hPa | 0 mm | - | - | - |
| 1787479983 | 33.33° C | 66% | 1013.2 hPa | 0 mm | - | - | - |
| 1787479923 | 33.33° C | 66% | 1013.3 hPa | 0 mm | - | - | - |
| 1787479863 | 33.33° C | 68% | 1013.2 hPa | 0 mm | - | - | - |
| 1787479803 | 33.33° C | 68% | 1013.4 hPa | 0 mm | - | - | - |
| 1787479683 | 33.33° C | 69% | 1013.3 hPa | 0 mm | - | - | - |
| 1787479623 | 33.33° C | 69% | 1013.4 hPa | 0 mm | - | - | - |
* Rain latest hour (hover to see other rain measurements)
** Current wind speed in m/s (hover to see current wind gust speed)